Location: Buch
(49.7331°N, 12.1098°E)
Time: 04:22:23
(UTC+00:00)

Landsat 7 - Pass Details

Date: 03 October 2021
Orbit: 701 x 703 km, 98.0° (Epoch: 21 October)

Event Time Altitude Azimuth Distance (km) Brightness Sun altitude
Exits shadow 17:42:27 10° 67° (ENE) 2,214 5.9 -10.0°
Reaches altitude 10° 17:42:52 10° 62° (ENE) 2,177 5.9 -10.1°
Maximum altitude 17:43:43 10° 51° (NE) 2,147 5.9 -10.2°
Drops below altitude 10° 17:44:35 10° 41° (NE) 2,180 6.0 -10.4°
Sets 17:48:57 0° 3° (N) 3,104 7.2 -11.1°
